Regional Weather Roundup
Issued by NWS

Home | Current Version | Previous Version | Graphics & Text | Print | Product List | Glossary On
Versions: 1 2 3 4 5 6 7 8 9 10 11 12 13 14 15 16 17 18 19 20 21 22 23 24 25 26 27 28 29 30 31 32 33 34 35 36 37 38 39 40 41 42 43 44 45 46 47 48 49 50
000
ASUS45 KSLC 200410
RWRUT

UTAH REGIONAL WEATHER ROUNDUP
NATIONAL WEATHER SERVICE SALT LAKE CITY UT
1000 PM MDT SUN APR 19 2015

UTZ001>011-023>025-200500-

NORTHERN UTAH

CITY           SKY/WX    TMP DP  RH WIND       PRES   REMARKS
BRIGHAM CITY   PTCLDY    56  24  29 N6        29.96R
HILL AFB       MOCLDY    56  30  36 E3        29.96R
LOGAN          CLEAR     47  33  58 W10       29.96R
OGDEN          PTCLDY    56  33  42 CALM      29.94R
PROVO AIRPORT  CLOUDY    57  36  44 NW9       29.95S
SALT LAKE CITY CLOUDY    59  31  34 CALM      29.94R
VERNAL         MOCLDY    47  39  74 SW3       30.00S
WENDOVER       MOCLDY    61  19  20 CALM      29.94S
HEBER CITY     CLOUDY    46  25  42 E6        29.99R
WEST JORDAN    CLEAR     55  32  41 W5        29.96S

$$

UTZ012>022-026-027-200500-

SOUTHERN/CENTRAL UTAH

CITY           SKY/WX    TMP DP  RH WIND       PRES   REMARKS
BLANDING       PTCLDY    46  33  62 N7        30.07S
BRYCE CANYON   CLEAR     34  18  52 W6        30.08R WCI  29
CEDAR CITY     PTCLDY    55  23  28 SE6       29.96R
DELTA          CLOUDY    57  16  20 CALM      29.94R
HANKSVILLE     PTCLDY    55  34  44 N12       29.96R
MILFORD        MOCLDY    50  17  27 W7        29.94R
MOAB/CYNLANDS  PTCLDY    55  40  56 CALM      29.95R
PRICE          PTCLDY    47  31  53 NE5       30.00R
ST GEORGE      CLOUDY    72  21  15 S7        29.84R
KANAB          CLEAR     55  25  30 NE6       29.98R

$$

REGIONAL REPORTS     COLORADO/ARIZONA

CITY           SKY/WX    TMP DP  RH WIND       PRES   REMARKS
CRAIG, CO      PTCLDY    36  28  73 NE3       30.02S
GRAND JUNCTION CLOUDY    48  43  82 E8        30.02R
RIFLE          CLOUDY    48  35  60 N3        30.02R
MONTROSE       CLOUDY    48  38  68 NE6       30.05S
CORTEZ         CLEAR     42  29  59 SE3       30.04R
PAGE, AZ       CLEAR     63  26  24 SE5       29.92R
GRAND CANYON   MOCLDY    44  18  35 SE3       30.06R
KINGMAN        CLEAR     62  14  15 S10       29.89R
FLAGSTAFF      PTCLDY    38  30  73 CALM      30.10R

$$

REGIONAL REPORTS    NEVADA/IDAHO/WYOMING

CITY           SKY/WX    TMP DP  RH WIND       PRES   REMARKS
LAS VEGAS, NV  MOCLDY    83  17   8 S8        29.75R
ELY            MOCLDY    52   4  14 NW6       30.02R
ELKO           MOCLDY    57  19  22 E5        29.99R
POCATELLO, ID  CLEAR     47  23  38 S10       29.98R
BURLEY         CLEAR     43  30  60 S7        29.96R
EVANSTON, WY   MOCLDY    42  20  41 W8        30.04R
ROCK SPRINGS   MOCLDY    41  32  70 NE18      30.01R
KEMMERER       CLEAR     37  21  52 NW9       30.03R WCI  31

$$


USA.gov is the U.S. government's official web portal to all federal, state and local government web resources and services.